Location: Chervonnoye
(48.6000°N, 34.4000°E)
Time: 15:23:22
(UTC+00:00)

Okean-O - Pass Details

Date: 19 April 2021
Orbit: 639 x 640 km, 98.2° (Epoch: 16 May)

Event Time Altitude Azimuth Distance (km) Brightness Sun altitude
Rises 17:19:30 0° 194° (SSW) 2,933 5.9 -6.9°
Reaches altitude 10° 17:21:58 10° 206° (SSW) 2,029 5.2 -7.3°
Maximum altitude 17:25:45 27° 265° (W) 1,224 4.8 -7.8°
Drops below altitude 10° 17:29:34 10° 324° (NW) 2,043 6.4 -8.4°
Sets 17:32:04 0° 337° (NNW) 2,958 7.0 -8.8°
